TimeSAST,TemperatureF,Dew PointF,Humidity,Sea Level PressureIn,VisibilityMPH,Wind Direction,Wind SpeedMPH,Gust SpeedMPH,PrecipitationIn,Events,Conditions,WindDirDegrees,DateUTC
12:00 AM,51.8,46.4,82,30.27,6.2,NW,5.8,-,N/A,,Partly Cloudy,310,2012-11-25 22:00:00
1:00 AM,55.4,48.2,77,30.24,6.2,WNW,10.4,-,N/A,,Mostly Cloudy,290,2012-11-25 23:00:00
2:00 AM,53,46,68,30.25,12,West,11.5,,,,,280,2012-11-26 00:00:00
2:00 AM,53.6,46.4,77,30.24,-9999.0,West,10.4,-,N/A,,Clear,280,2012-11-26 00:00:00
3:00 AM,51.8,44.6,76,30.24,-9999.0,WNW,10.4,-,N/A,,Clear,290,2012-11-26 01:00:00
4:00 AM,51.8,42.8,71,30.24,-9999.0,NW,9.2,-,N/A,,Clear,310,2012-11-26 02:00:00
5:00 AM,51,44,71,30.25,12,NW,10.4,,,,,310,2012-11-26 03:00:00
5:00 AM,51.8,44.6,76,30.24,-9999.0,NW,9.2,-,N/A,,Clear,310,2012-11-26 03:00:00
6:00 AM,51.8,44.6,76,30.24,-9999.0,WNW,6.9,-,N/A,,Clear,300,2012-11-26 04:00:00
7:00 AM,57.2,44.6,63,30.24,-9999.0,WNW,13.8,-,N/A,,Clear,300,2012-11-26 05:00:00
8:00 AM,61,42,38,30.26,12,WNW,16.1,,,,,290,2012-11-26 06:00:00
8:00 AM,60.8,42.8,52,30.24,-9999.0,WNW,16.1,-,N/A,,Clear,290,2012-11-26 06:00:00
9:00 AM,64.4,42.8,45,30.24,6.2,West,15.0,-,N/A,,Partly Cloudy,280,2012-11-26 07:00:00
10:00 AM,66.2,42.8,43,30.24,6.2,West,13.8,-,N/A,,Partly Cloudy,260,2012-11-26 08:00:00
11:00 AM,69,48,36,30.25,12,WSW,12.7,,,,Scattered Clouds,250,2012-11-26 09:00:00
11:00 AM,68.0,46.4,46,30.27,6.2,SW,12.7,-,N/A,,Partly Cloudy,220,2012-11-26 09:00:00
12:00 PM,66.2,48.2,52,30.27,6.2,SSW,19.6,-,N/A,,Scattered Clouds,210,2012-11-26 10:00:00
1:00 PM,68.0,48.2,49,30.27,6.2,SSW,16.1,-,N/A,,Partly Cloudy,210,2012-11-26 11:00:00
2:00 PM,66,51,49,30.29,12,SSW,15.0,,,,Scattered Clouds,200,2012-11-26 12:00:00
2:00 PM,66.2,50.0,56,30.27,6.2,SSW,15.0,-,N/A,,Partly Cloudy,200,2012-11-26 12:00:00
3:00 PM,66.2,50.0,56,30.27,6.2,South,11.5,-,N/A,,Scattered Clouds,190,2012-11-26 13:00:00
4:00 PM,66.2,51.8,60,30.27,6.2,SSW,13.8,-,N/A,,Partly Cloudy,210,2012-11-26 14:00:00
5:00 PM,63,52,58,30.31,12,SW,8.1,,,,Mostly Cloudy,220,2012-11-26 15:00:00
5:00 PM,62.6,51.8,68,30.30,6.2,SW,8.1,-,N/A,,Scattered Clouds,220,2012-11-26 15:00:00
6:00 PM,62.6,51.8,68,30.30,6.2,SW,6.9,-,N/A,,Mostly Cloudy,220,2012-11-26 16:00:00
7:00 PM,60.8,53.6,77,30.33,6.2,SW,5.8,-,N/A,,Scattered Clouds,220,2012-11-26 17:00:00
8:00 PM,59,53,75,30.34,12,SSW,3.5,,,,Partly Cloudy,200,2012-11-26 18:00:00
8:00 PM,59.0,53.6,82,30.33,6.2,SSW,3.5,-,N/A,,Partly Cloudy,200,2012-11-26 18:00:00
9:00 PM,57.2,51.8,82,30.36,-9999.0,NNE,3.5,-,N/A,,Clear,30,2012-11-26 19:00:00
10:00 PM,55.4,51.8,88,30.36,-9999.0,NNE,3.5,-,N/A,,Clear,20,2012-11-26 20:00:00
11:00 PM,53.6,50.0,88,30.36,6.2,North,2.3,-,N/A,,Partly Cloudy,360,2012-11-26 21:00:00